Mexico City Airport, Mexico

5:55 PM CST on March 30, 2017 (GMT -0600)
Lic Benito Juarez International

Weather History for MMMX - April, 2011

Change the Weather History Date:

Saturday, April 23, 2011

  Actual Average Record
Temperature  
Mean Temperature 70 °F -  
Max Temperature 82 °F 78 °F 86 °F (2008)
Min Temperature 57 °F 52 °F 41 °F (2012)
Cooling Degree Days 4    
Growing Degree Days 20 (Base 50)    
Moisture  
Dew Point 43 °F    
Average Humidity 44    
Maximum Humidity 72    
Minimum Humidity 12    
Precipitation  
Precipitation 0.00 in - - ()
Sea Level Pressure  
Sea Level Pressure 30.09 in    
Wind  
Wind Speed 4 mph ()    
Max Wind Speed 18 mph    
Max Gust Speed 26 mph    
Visibility 8.5 miles    
Events      
Averages and records for this station are not official NWS values.
T = Trace of Precipitation, MM = Missing Value Source: Averaged Metar Reports

Daily Weather History Graph

Daily Weather History Graph

Search for Another Location

Airport or City:

Trip Planner

Search our weather history database for the weather conditions in past years. The results will help you decide how hot, cold, wet, or windy it might be!

Date:

Astronomy

Apr. 23, 2011 Rise Set
Actual Time 7:13 AM CDT 7:56 PM CDT
Civil Twilight 6:50 AM CDT 8:19 PM CDT
Nautical Twilight 6:23 AM CDT 8:45 PM CDT
Astronomical Twilight 5:57 AM CDT 9:12 PM CDT
Moon 12:51 AM CDT (4/23) 12:11 PM CDT (4/23)
Length of Visible Light 13h 28m
Length of Day
12h 43m
Waning Gibbous, 64% of the Moon is Illuminated
Apr 23
Waning Gibbous
Apr 24
Last Quarter
May 3
New
May 10
First Quarter
May 17
Full

Hourly Weather History & Observations

Time (CDT) Temp. Dew Point Humidity Pressure Visibility Wind Dir Wind Speed Gust Speed Precip Events Conditions
12:46 AM 60.8 °F 50.0 °F 68% 29.70 in 12.0 mi Calm Calm - N/A   Clear
1:52 AM 60.8 °F 48.2 °F 63% 30.24 in 12.0 mi East 4.6 mph - N/A   Scattered Clouds
2:49 AM 60.8 °F 48.2 °F 63% 30.23 in 12.0 mi East 6.9 mph - N/A   Scattered Clouds
3:49 AM 60.8 °F 48.2 °F 63% 29.62 in 12.0 mi Calm Calm - N/A   Clear
4:47 AM 59.0 °F 46.4 °F 63% 30.22 in 12.0 mi Calm Calm - N/A   Partly Cloudy
5:42 AM 59.0 °F 46.4 °F 63% 30.22 in 12.0 mi Calm Calm - N/A   Clear
6:47 AM 59.0 °F 46.4 °F 63% 29.66 in 10.0 mi SSW 3.5 mph - N/A   Clear
7:21 AM 57.2 °F 48.2 °F 72% 30.24 in 8.0 mi SSW 4.6 mph - N/A   Clear
7:43 AM 57.2 °F 46.4 °F 67% 30.25 in 8.0 mi SSW 4.6 mph - N/A   Clear
8:21 AM 59.0 °F 46.4 °F 63% 30.27 in 8.0 mi Calm Calm - N/A   Clear
8:47 AM 60.8 °F 46.4 °F 59% 30.28 in 8.0 mi Calm Calm - N/A   Clear
9:19 AM 64.4 °F 46.4 °F 52% 30.29 in 8.0 mi NE 3.5 mph - N/A   Clear
9:20 AM 64.4 °F 46.4 °F 52% 30.29 in 8.0 mi NE 3.5 mph - N/A   Clear
9:44 AM 66.2 °F 46.4 °F 49% 29.75 in 8.0 mi Calm Calm - N/A   Clear
10:20 AM 68.0 °F 46.4 °F 46% 30.28 in 8.0 mi Calm Calm - N/A   Partly Cloudy
10:43 AM 69.8 °F 44.6 °F 40% 30.18 in 8.0 mi NE 4.6 mph - N/A   Partly Cloudy
11:32 AM 73.4 °F 42.8 °F 33% 30.27 in 8.0 mi East 4.6 mph - N/A   Partly Cloudy
11:45 AM 73.4 °F 42.8 °F 33% 30.26 in 7.0 mi Calm Calm - N/A   Scattered Clouds
12:43 PM 75.2 °F 41.0 °F 29% 29.71 in 7.0 mi NE 10.4 mph - N/A   Scattered Clouds
1:39 PM 78.8 °F 39.2 °F 24% 30.22 in 7.0 mi ENE 4.6 mph - N/A   Scattered Clouds
1:43 PM 78.8 °F 39.2 °F 24% 30.22 in 7.0 mi Calm Calm - N/A   Scattered Clouds
2:46 PM 80.6 °F 33.8 °F 18% 30.18 in 7.0 mi Calm Calm - N/A   Mostly Cloudy
3:45 PM 82.4 °F 28.4 °F 14% 29.57 in 7.0 mi NNW 6.9 mph - N/A   Scattered Clouds
4:48 PM 80.6 °F 24.8 °F 13% 30.13 in 7.0 mi North 8.1 mph - N/A   Scattered Clouds
5:49 PM 82.4 °F 24.8 °F 12% 30.11 in 7.0 mi NNW 8.1 mph - N/A   Scattered Clouds
6:52 PM 78.8 °F 33.8 °F 20% 29.57 in 7.0 mi ESE 13.8 mph - N/A   Scattered Clouds
7:09 PM 77.0 °F 41.0 °F 28% 30.13 in 7.0 mi ESE 11.5 mph 26.5 mph N/A   Scattered Clouds
7:50 PM 75.2 °F 42.8 °F 31% 30.15 in 7.0 mi ENE 18.4 mph - N/A   Scattered Clouds
8:06 PM 73.4 °F 44.6 °F 36% 30.16 in 7.0 mi South 12.7 mph - N/A   Scattered Clouds
8:27 PM 71.6 °F 48.2 °F 43% 30.18 in 7.0 mi ESE 17.3 mph - N/A   Scattered Clouds
8:47 PM 71.6 °F 46.4 °F 41% 30.19 in 7.0 mi ESE 8.1 mph - N/A   Partly Cloudy
9:45 PM 69.8 °F 46.4 °F 43% 29.64 in 10.0 mi ESE 11.5 mph - N/A   Partly Cloudy
10:45 PM 68.0 °F 46.4 °F 46% 30.24 in 10.0 mi SSE 15.0 mph - N/A   Clear
11:45 PM 66.2 °F 44.6 °F 46% 30.25 in 10.0 mi SE 6.9 mph - N/A   Clear